HYLAS 4 (43272 NORAD) Tracking and Keplerian Element Data

This shows tracking and keplerian element data for the satellite.

Feedback or suggestion? Click here.




ElementValue
Catalog43272
NameHYLAS 4
Epoch Orbit229
Epoch Day316.94854347
Epoch Year2018
RAAN112.4793
Inclination0.063
Eccentricity0.000403
Argument of Perigee70.2993
Mean Anonmoly177.2463
Mean Motion1.00270885
Decay Rate-2.35E-06
L11 43272U 18033B 18316.94854347 -.00000235 00000-0 00000-0 0 9997
L22 43272 0.0630 112.4793 0004030 70.2993 177.2463 1.00270885 2297

Live tracking and technical data element details for HYLAS 4 (NORAD 43272). HYLAS 4 can be tracked NOW for your location showing map with azimuth and elevation plus other details from your city location.

Track the satellite on the map from your city or location and see movement details for azimuth, elevation, latitude, longitude, range, height, and movement on the map or in text.







IsCatalogInMostPopularTable: catalog: 43272, numindb: 72
Update: records affected: 1



GetName: 43272 HYLAS 4

Hit Count: updated at: Thu, 15 Nov 2018 04:31:53 GMT